Previsão horária em Allensbach

Hoje, 25 Junho, Sexta-feira

Tempo Temperatura Precipitação Vento Pressão Humidade
00:00 +14°C° 0 mm 2 m/s 725 mmHg 92%
01:00 +14°C° 0 mm 2 m/s 725 mmHg 92%
02:00 +14°C° 0 mm 2 m/s 725 mmHg 93%
03:00 +14°C° 0 mm 2 m/s 725 mmHg 93%
04:00 +13°C° 0 mm 2 m/s 725 mmHg 94%
05:00 +14°C° 0 mm 2 m/s 725 mmHg 93%
06:00 +14°C° 0 mm 1 m/s 725 mmHg 92%
07:00 +15°C° 0 mm 1 m/s 725 mmHg 91%
08:00 +16°C° 0.1 mm 2 m/s 725 mmHg 88%
09:00 +16°C° 0.1 mm 2 m/s 725 mmHg 84%
10:00 +17°C° 0.1 mm 2 m/s 725 mmHg 81%
11:00 +18°C° 0.1 mm 2 m/s 725 mmHg 75%
12:00 +19°C° 0.1 mm 2 m/s 725 mmHg 70%
13:00 +21°C° 0.1 mm 2 m/s 725 mmHg 64%
14:00 +22°C° 0.3 mm 1 m/s 724 mmHg 66%
15:00 +22°C° 0.3 mm 1 m/s 724 mmHg 67%
16:00 +22°C° 0.3 mm 1 m/s 724 mmHg 69%
17:00 +21°C° 0.6 mm 1 m/s 724 mmHg 75%
18:00 +20°C° 0.6 mm 1 m/s 724 mmHg 82%
19:00 +18°C° 0.6 mm 0 m/s 724 mmHg 88%
20:00 +16°C° 0.2 mm 0 m/s 725 mmHg 90%
21:00 +15°C° 0.2 mm 0 m/s 725 mmHg 91%
22:00 +14°C° 0.2 mm 1 m/s 725 mmHg 93%
23:00 +13°C° 0 mm 0 m/s 725 mmHg 93%

Amanhã, 26 Junho, Sábado

Tempo Temperatura Precipitação Vento Pressão Humidade
00:00 +12°C° 0 mm 0 m/s 725 mmHg 94%
01:00 +12°C° 0 mm 0 m/s 725 mmHg 94%
02:00 +12°C° 0 mm 0 m/s 724 mmHg 95%
03:00 +11°C° 0 mm 0 m/s 724 mmHg 95%
04:00 +11°C° 0 mm 0 m/s 724 mmHg 95%
05:00 +12°C° 0 mm 0 m/s 724 mmHg 94%
06:00 +13°C° 0 mm 0 m/s 725 mmHg 93%
07:00 +14°C° 0 mm 0 m/s 725 mmHg 92%
08:00 +16°C° 0 mm 0 m/s 725 mmHg 84%
09:00 +20°C° 0 mm 1 m/s 725 mmHg 76%
10:00 +22°C° 0 mm 1 m/s 725 mmHg 68%
11:00 +23°C° 0 mm 1 m/s 725 mmHg 63%
12:00 +24°C° 0 mm 1 m/s 724 mmHg 58%
13:00 +26°C° 0 mm 2 m/s 724 mmHg 53%
14:00 +26°C° 0 mm 2 m/s 724 mmHg 52%
15:00 +26°C° 0 mm 2 m/s 723 mmHg 52%
16:00 +26°C° 0 mm 2 m/s 723 mmHg 52%
17:00 +25°C° 0 mm 2 m/s 723 mmHg 61%
18:00 +24°C° 0 mm 2 m/s 723 mmHg 70%
19:00 +21°C° 0 mm 2 m/s 723 mmHg 79%
20:00 +21°C° 0 mm 1 m/s 723 mmHg 84%
21:00 +19°C° 0 mm 1 m/s 723 mmHg 89%
22:00 +18°C° 0 mm 1 m/s 723 mmHg 93%
23:00 +16°C° 0 mm 1 m/s 723 mmHg 94%

Depois de amanhã, 27 Junho, Domingo

Tempo Temperatura Precipitação Vento Pressão Humidade
00:00 +16°C° 0 mm 1 m/s 723 mmHg 94%
01:00 +16°C° 0 mm 1 m/s 723 mmHg 95%
02:00 +15°C° 0 mm 1 m/s 723 mmHg 95%
03:00 +15°C° 0 mm 1 m/s 723 mmHg 95%
04:00 +15°C° 0 mm 1 m/s 723 mmHg 95%
05:00 +16°C° 0 mm 1 m/s 723 mmHg 93%
06:00 +18°C° 0 mm 1 m/s 723 mmHg 91%
07:00 +18°C° 0 mm 1 m/s 723 mmHg 88%
08:00 +21°C° 0 mm 1 m/s 723 mmHg 80%
09:00 +23°C° 0 mm 1 m/s 723 mmHg 72%
10:00 +25°C° 0 mm 1 m/s 723 mmHg 64%
11:00 +26°C° 0 mm 1 m/s 722 mmHg 59%
12:00 +27°C° 0 mm 2 m/s 722 mmHg 53%
13:00 +29°C° 0 mm 2 m/s 722 mmHg 48%
14:00 +29°C° 0 mm 2 m/s 722 mmHg 49%
15:00 +29°C° 0 mm 2 m/s 722 mmHg 50%
16:00 +29°C° 0 mm 3 m/s 721 mmHg 50%
17:00 +28°C° 0.1 mm 3 m/s 721 mmHg 60%
18:00 +26°C° 0.1 mm 2 m/s 721 mmHg 71%
19:00 +24°C° 0.1 mm 2 m/s 721 mmHg 81%
20:00 +23°C° 0 mm 2 m/s 721 mmHg 84%
21:00 +21°C° 0 mm 2 m/s 721 mmHg 88%
22:00 +21°C° 0 mm 1 m/s 721 mmHg 91%
23:00 +19°C° 0.1 mm 2 m/s 721 mmHg 92%

28 Junho, Segunda-feira

Tempo Temperatura Precipitação Vento Pressão Humidade
00:00 +19°C° 0.1 mm 2 m/s 721 mmHg 92%
01:00 +18°C° 0.1 mm 2 m/s 721 mmHg 93%
02:00 +19°C° 0.8 mm 1 m/s 721 mmHg 94%
03:00 +19°C° 0.8 mm 1 m/s 722 mmHg 95%
04:00 +16°C° 0.8 mm 0 m/s 722 mmHg 97%
05:00 +17°C° 0 mm 0 m/s 722 mmHg 95%
06:00 +17°C° 0 mm 0 m/s 722 mmHg 94%
07:00 +20°C° 0 mm 1 m/s 722 mmHg 93%
08:00 +22°C° 0 mm 1 m/s 722 mmHg 85%
09:00 +24°C° 0 mm 1 m/s 722 mmHg 77%
10:00 +25°C° 0 mm 2 m/s 721 mmHg 68%
11:00 +27°C° 0 mm 2 m/s 721 mmHg 63%
12:00 +28°C° 0 mm 2 m/s 721 mmHg 58%
13:00 +29°C° 0 mm 2 m/s 720 mmHg 53%
14:00 +29°C° 0 mm 3 m/s 720 mmHg 55%
15:00 +29°C° 0 mm 4 m/s 719 mmHg 57%
16:00 +29°C° 0 mm 4 m/s 719 mmHg 59%
17:00 +27°C° 2.1 mm 4 m/s 719 mmHg 70%
18:00 +23°C° 2.1 mm 5 m/s 719 mmHg 80%
19:00 +21°C° 2.1 mm 5 m/s 719 mmHg 91%
20:00 +20°C° 1 mm 4 m/s 720 mmHg 92%
21:00 +19°C° 1 mm 3 m/s 721 mmHg 94%
22:00 +17°C° 1 mm 2 m/s 722 mmHg 96%
23:00 +18°C° 0.1 mm 1 m/s 722 mmHg 96%

29 Junho, Terça-feira

Tempo Temperatura Precipitação Vento Pressão Humidade
00:00 +18°C° 0.1 mm 1 m/s 722 mmHg 96%
01:00 +15°C° 0.1 mm 0 m/s 722 mmHg 97%
02:00 +15°C° 0.1 mm 0 m/s 722 mmHg 97%
03:00 +15°C° 0.1 mm 0 m/s 721 mmHg 97%
04:00 +15°C° 0.1 mm 0 m/s 721 mmHg 97%
05:00 +16°C° 0.1 mm 0 m/s 721 mmHg 97%
06:00 +16°C° 0.1 mm 0 m/s 721 mmHg 96%
07:00 +17°C° 0.1 mm 0 m/s 721 mmHg 96%
08:00 +19°C° 0.3 mm 1 m/s 721 mmHg 93%
09:00 +20°C° 0.3 mm 1 m/s 721 mmHg 91%
10:00 +19°C° 0.3 mm 2 m/s 721 mmHg 89%
11:00 +18°C° 0.9 mm 2 m/s 721 mmHg 91%
12:00 +17°C° 0.9 mm 2 m/s 721 mmHg 93%
13:00 +16°C° 0.9 mm 3 m/s 721 mmHg 96%
14:00 +16°C° 1.4 mm 2 m/s 722 mmHg 96%
15:00 +15°C° 1.4 mm 2 m/s 722 mmHg 97%
16:00 +15°C° 1.4 mm 2 m/s 722 mmHg 97%
17:00 +15°C° 1.2 mm 2 m/s 722 mmHg 97%
18:00 +14°C° 1.2 mm 2 m/s 723 mmHg 97%
19:00 +14°C° 1.2 mm 2 m/s 723 mmHg 97%
20:00 +14°C° 0.7 mm 2 m/s 723 mmHg 97%
21:00 +13°C° 0.7 mm 1 m/s 724 mmHg 97%
22:00 +13°C° 0.7 mm 1 m/s 724 mmHg 97%
23:00 +12°C° 0 mm 1 m/s 724 mmHg 96%

30 Junho, Quarta-feira

Tempo Temperatura Precipitação Vento Pressão Humidade
00:00 +12°C° 0 mm 1 m/s 723 mmHg 96%
01:00 +10°C° 0 mm 0 m/s 723 mmHg 95%
02:00 +10°C° 0 mm 0 m/s 723 mmHg 95%
03:00 +10°C° 0 mm 0 m/s 722 mmHg 95%
04:00 +10°C° 0 mm 0 m/s 722 mmHg 94%
05:00 +11°C° 0 mm 0 m/s 722 mmHg 93%
06:00 +12°C° 0 mm 0 m/s 722 mmHg 91%
07:00 +13°C° 0 mm 0 m/s 722 mmHg 89%
08:00 +15°C° 0 mm 0 m/s 722 mmHg 80%
09:00 +19°C° 0 mm 1 m/s 722 mmHg 70%
10:00 +21°C° 0 mm 1 m/s 722 mmHg 60%
11:00 +22°C° 0 mm 1 m/s 721 mmHg 56%
12:00 +23°C° 0 mm 1 m/s 721 mmHg 52%
13:00 +24°C° 0 mm 1 m/s 721 mmHg 48%
14:00 +24°C° 0 mm 1 m/s 721 mmHg 51%
15:00 +24°C° 0 mm 2 m/s 720 mmHg 55%
16:00 +23°C° 0 mm 2 m/s 720 mmHg 58%
17:00 +20°C° 0.8 mm 2 m/s 720 mmHg 69%
18:00 +19°C° 0.8 mm 2 m/s 720 mmHg 81%
19:00 +17°C° 0.8 mm 2 m/s 720 mmHg 92%
20:00 +16°C° 1.7 mm 2 m/s 721 mmHg 94%
21:00 +16°C° 1.7 mm 1 m/s 721 mmHg 96%
22:00 +15°C° 1.7 mm 1 m/s 721 mmHg 98%
23:00 +14°C° 1.5 mm 2 m/s 722 mmHg 97%
Mostrar mais